COSMOS 970 DEB

Satellite information

Favourite Embed

Satellite Type and Status

DEBRISIN ORBIT

Key statistics

Satellite COSMOS 970 DEB at a glance.

Uptime

17420

Days in orbit

Revolutions

≈ 13.8

Per day

Orbit

LEO

Low Earth Orbit

Inclination

65.4

Latest

Satellite identification and parameters

Extended collection of information and parameters for COSMOS 970 DEB.

Object identification

Identified? True

Debris? True

Object name: COSMOS 970 DEB

International designator: 1977-121L

Object number (NORAD): 10569

Object ID (CCSDS): 10569

Country: COMMONWEALTH OF INDEPENDENT STATES (CIS)

Current information (Y/N): Y

RCS size: SMALL

Orbital parameters

Period: 104.451 minutes

Inclination: 65.3973 deg

SMA: 7346.883 km

Apoapsis: 1076.988 km

Periapsis: 860.507 km

RAAN: 273.2654 deg

Eccentricy: 0.0147329

Argument of periapsis: 292.7389 deg

Mean anomaly: 65.8158 deg

Mean motion: 13.78631234 rev/day

Mean motion (dot): 0.00000478 rev/day2

B* drag term: 0.00051121414 1/REarth

Two-line elements (TLE)

Creation date: Aug. 31, 2025, 2:26 a.m.

Reference frame: TEME

Reference center: EARTH

Epoch: Aug. 30, 2025, 7:05 p.m. UTC

TLE line 0: 0 COSMOS 970 DEB

TLE line 1: 1 10569U 77121L 25242.79531370 .00000478 00000-0 51121-3 0 9991

TLE line 2: 2 10569 65.3973 273.2654 0147329 292.7389 65.8158 13.78631234389743

Live tracking on map

Real-time ground track for satellite COSMOS 970 DEB.

In-orbit conjunctions

A list of the most updated potential collisions computed for object COSMOS 970 DEB.

Target Orbit TCA Probability of collision Miss distance Type
FENGYUN 1C DEB SSO 2025-08-29 12:16:26 0.00011247 162.0 (m) DEBRIS
TEMPSAT 2 LEO 2024-11-13 18:14:56 0.0002568181 163.0 (m) PAYLOAD

Associated space launch

Second generation ASAT satellite

COSMOS 970 DEB was lifted into orbit during the mission ‘Tsiklon-2 | IS-A 8’, on board a Tsiklon-2 space rocket.

The launch took place on Dec. 21, 1977, 10:35 a.m. from 90.

For more information about the launch, click the button.

Launch to space Tsiklon-2 | IS-A 8
Tsiklon-2 | IS-A 8

Agency: N/A

Status: Launch Successful

Launch date: Dec. 21, 1977, 10:35 a.m. UTC

Rocket: Tsiklon-2

Launch pad: 90

Location: Baikonur Cosmodrome, Republic of Kazakhstan

...

Latest news about this satellite

There are no fresh news available about this satellite. Check back as we update our databases every day.


Newsletter sign-up

Weekly statistics, charts and insights to help you stay on top of the space industry.